"2010-11-21 00:00:00",354541,1.197,313.6,16.09,1.187,1.914,99.89755,-0.961,0.339,85.5,0,109.5,13.57,-0.21,275.6
"2010-11-21 00:00:30",354542,1.814,319.8,7.667,1.219,2.359,99.83302,-1.125,0.238,86,0,109.6,13.57,-0.38,281.8
"2010-11-21 00:01:00",354543,1.999,325.5,6.479,1.157,2.126,99.7866,-1.244,0.154,86.6,0,109.6,13.57,-0.50,287.5
"2010-11-21 00:01:30",354544,1.395,320.6,10.2,0.996,0.514,99.77782,-1.266,-0.124,87.1,0,109.6,13.56,-0.52,282.6
"2010-11-21 00:02:00",354545,0.395,308,9.95,0.191,0.073,99.83442,-1.122,-0.221,87.8,0,109.5,13.6,-0.37,270.0
"2010-11-21 00:02:30",354546,0.153,252.6,26.79,0.078,0.185,99.90575,-0.94,-0.168,87.8,0,109.5,13.6,-0.19,214.6
"2010-11-21 00:03:00",354547,0.171,191.1,11.58,0.107,-0.123,99.94197,-0.848,-0.118,87.4,0,109.5,13.6,-0.10,153.1
"2010-11-21 00:03:30",354548,1.436,155.8,12.23,1.297,2.858,99.97254,-0.77,0.115,87.2,0,109.5,13.57,-0.02,117.8
"2010-11-21 00:04:00",354549,2.005,147.5,9.57,1.197,4.211,100.0079,-0.679,0.207,86.8,0,109.5,13.57,0.07,109.5
"2010-11-21 00:04:30",354550,0.475,160.2,10.76,0.496,1.146,100.047,-0.58,0.04,86.1,0,109.5,13.57,0.17,122.2
"2010-11-21 00:05:00",354551,0.924,211,23.98,1.18,2.371,100.0679,-0.526,0.287,85.8,0,109.5,13.57,0.22,173.0
"2010-11-21 00:05:30",354552,2.247,256.7,10.25,1.221,3.844,100.0679,-0.526,0.425,85.4,0,109.5,13.57,0.22,218.7
"2010-11-21 00:06:00",354553,0.562,259.4,17.54,0.725,0.665,100.0679,-0.526,0.267,85,0,109.5,13.57,0.22,221.4
"2010-11-21 00:06:30",354554,0.169,270.5,20.37,0.135,-0.203,100.0549,-0.56,0.212,84.8,0,109.5,13.61,0.19,232.5
"2010-11-21 00:07:00",354555,0.383,19.48,52.23,0.135,-0.924,100.0294,-0.625,0.2,84.8,0,109.5,13.61,0.13,341.5
"2010-11-21 00:07:30",354556,1.142,70.07,11.75,0.932,0.656,99.9816,-0.746,0.314,85,0,109.5,13.58,0.00,32.1
"2010-11-21 00:08:00",354557,1.999,106.4,12.9,1.282,2.766,99.93829,-0.857,0.326,85.5,0,109.5,13.59,-0.11,68.4
"2010-11-21 00:08:30",354558,1.525,97,31.5,1.347,3.155,99.91169,-0.925,0.272,85.9,0,109.5,13.59,-0.18,59.0
"2010-11-21 00:09:00",354559,1.136,171.6,16.78,0.814,0.641,99.89922,-0.956,0.121,86.1,0,109.5,13.59,-0.21,133.6
"2010-11-21 00:09:30",354560,3.305,194.7,9.35,1.051,3.874,99.90234,-0.949,0.196,86.4,0,109.5,13.58,-0.20,156.7
"2010-11-21 00:10:00",354561,1.641,215,14.9,0.992,0.996,99.89894,-0.957,0.1,86.4,0,109.5,13.59,-0.21,177.0
"2010-11-21 00:10:30",354562,1.406,241.6,5.732,1.187,1.401,99.9097,-0.93,-0.024,86.4,0,109.5,13.59,-0.18,203.6
"2010-11-21 00:11:00",354563,0.821,262,7.615,0.826,1.819,99.9315,-0.874,0.04,86.5,0,109.5,13.59,-0.13,224.0
"2010-11-21 00:11:30",354564,2.152,264.3,12.32,1.08,4.342,99.94424,-0.842,0.252,86.5,0,109.5,13.59,-0.09,226.3
"2010-11-21 00:12:00",354565,1.585,230.8,29.75,1.234,3.393,99.96349,-0.793,0.145,86.2,0,109.5,13.59,-0.04,192.8
"2010-11-21 00:12:30",354566,1.076,214.4,13.79,1.195,2.059,99.96603,-0.786,0.194,86.1,0,109.5,13.59,-0.04,176.4
"2010-11-21 00:13:00",354567,0.431,206.3,14.23,0.187,-0.261,99.97027,-0.775,0.035,85.9,0,109.5,13.62,-0.03,168.3
"2010-11-21 00:13:30",354568,1.615,223.1,12.36,1.057,0.25,99.98386,-0.741,0.056,85.8,0,109.5,13.59,0.01,185.1
"2010-11-21 00:14:00",354569,2.25,226.7,22.47,1.234,1.612,99.99462,-0.713,0.197,85.7,0,109.5,13.59,0.04,188.7
"2010-11-21 00:14:30",354570,1.31,204,11.84,0.157,0.198,99.97622,-0.76,0.19,85.7,0,109.5,13.62,-0.01,166.0
"2010-11-21 00:15:00",354571,2.717,209.3,9.81,1.359,3.81,99.95216,-0.822,0.303,85.9,0,109.5,13.59,-0.07,171.3
"2010-11-21 00:15:30",354572,3.204,217,14.01,0.867,4.939,99.93176,-0.874,0.339,86,0,109.5,13.59,-0.12,179.0
"2010-11-21 00:16:00",354573,2.234,211.5,10.31,1.298,2.892,99.9094,-0.931,0.23,86.2,0,109.5,13.59,-0.18,173.5
"2010-11-21 00:16:30",354574,1.984,209.4,9.22,0.911,0.832,99.88589,-0.99,-0.025,86.2,0,109.5,13.59,-0.24,171.4
"2010-11-21 00:17:00",354575,2.8,202.3,11.02,1.278,1.94,99.88675,-0.988,0.097,86.6,0,109.5,13.59,-0.24,164.3
"2010-11-21 00:17:30",354576,2.675,190.3,7.064,0.993,1.79,99.88902,-0.983,0.1,86.8,0,109.5,13.59,-0.23,152.3
"2010-11-21 00:18:00",354577,3.587,196.1,7.543,1.226,4.237,99.88873,-0.983,0.16,87,0,109.5,13.59,-0.23,158.1
"2010-11-21 00:18:30",354578,4.563,199.2,5.543,0.973,4.921,99.88306,-0.998,0.093,87,0,109.5,13.59,-0.25,161.2
"2010-11-21 00:19:00",354579,4.271,194.3,6.36,1.165,3.506,99.88306,-0.998,0.085,87.1,0,109.5,13.59,-0.25,156.3
"2010-11-21 00:19:30",354580,3.779,194.4,7.065,1.154,3.056,99.88504,-0.993,0.097,87.3,0,109.5,13.59,-0.24,156.4
"2010-11-21 00:20:00",354581,3.565,192.7,8.71,1.24,2.402,99.89354,-0.971,-0.037,87.2,0,109.5,13.58,-0.22,154.7
"2010-11-21 00:20:30",354582,3.4,184.6,13.01,1.074,3.641,99.89184,-0.975,0.09,87.4,0,109.5,13.59,-0.23,146.6
"2010-11-21 00:21:00",354583,3.097,174.2,9.16,1.19,2.253,99.89721,-0.962,-0.028,87.3,0,109.5,13.59,-0.21,136.2
"2010-11-21 00:21:30",354584,3.502,174.9,7.628,1.276,3.361,99.89636,-0.964,0.033,87.4,0,109.5,13.58,-0.22,136.9
"2010-11-21 00:22:00",354585,3.634,175.8,4.479,1.136,4.344,99.88758,-0.986,0.082,87.5,0,109.5,13.59,-0.24,137.8
"2010-11-21 00:22:30",354586,2.519,176.3,18.12,1.266,2.832,99.87399,-1.021,0.015,87.4,0,109.5,13.59,-0.27,138.3
"2010-11-21 00:23:00",354587,1.923,163.1,9.45,1.214,0.772,99.80745,-1.19,-0.072,87,0,109.5,13.59,-0.44,125.1
"2010-11-21 00:23:30",354588,1.264,152.9,3.901,1.28,0.129,99.70013,-1.464,-0.153,86.9,0,109.5,13.59,-0.72,114.9
"2010-11-21 00:24:00",354589,2.024,137.5,6.166,0.737,-0.451,99.62906,-1.645,-0.351,87.3,0,109.5,13.59,-0.90,99.5
"2010-11-21 00:24:30",354590,3.08,154.1,4.593,1.402,3.525,99.61943,-1.67,-0.421,88.3,0,109.5,13.59,-0.92,116.1
"2010-11-21 00:25:00",354591,2.29,156.7,9.19,1.08,4.163,99.67012,-1.54,-0.288,89.4,0,109.5,13.6,-0.79,118.7
"2010-11-21 00:25:30",354592,2.966,175.8,7.824,1.072,4.892,99.72108,-1.411,-0.29,89.9,0,109.5,13.6,-0.66,137.8
"2010-11-21 00:26:00",354593,2.112,192.5,7.334,1.302,2.774,99.76526,-1.298,-0.352,90,0,109.5,13.6,-0.55,154.5
"2010-11-21 00:26:30",354594,1.304,181.1,10.41,0.469,0.455,99.79726,-1.216,-0.462,89.7,0,109.5,13.6,-0.47,143.1
"2010-11-21 00:27:00",354595,2.624,191.4,9.01,1.223,1.392,99.82671,-1.141,-0.41,89.5,0,109.5,13.6,-0.39,153.4
"2010-11-21 00:27:30",354596,2.824,214.6,9.44,1.192,2.263,99.83435,-1.122,-0.259,89.4,0,109.5,13.6,-0.37,176.6
"2010-11-21 00:28:00",354597,2.678,213.3,11.73,1.241,3.381,99.8587,-1.06,-0.118,89.2,0,109.5,13.6,-0.31,175.3
"2010-11-21 00:28:30",354598,2.848,220.2,7.373,1.134,4.599,99.86408,-1.046,-0.063,89.1,0,109.5,13.6,-0.30,182.2
"2010-11-21 00:29:00",354599,1.256,198.9,12.19,1.176,2.786,99.86408,-1.046,-0.08,88.8,0,109.5,13.6,-0.30,160.9
"2010-11-21 00:29:30",354600,1.422,178.3,12.9,1.098,2.337,99.86408,-1.046,-0.197,88.6,0,109.5,13.6,-0.30,140.3
"2010-11-21 00:30:00",354601,0.82,184.8,11.2,0.13,-0.166,99.86492,-1.044,-0.231,88.4,0,109.5,13.64,-0.30,146.8
"2010-11-21 00:30:30",354602,0.912,208.1,7.804,0.488,-0.132,99.87003,-1.031,-0.192,88.3,0,109.5,13.6,-0.28,170.1
"2010-11-21 00:31:00",354603,1.666,199.3,6.493,1.288,2.126,99.88362,-0.996,-0.123,88.2,0,109.5,13.6,-0.25,161.3
"2010-11-21 00:31:30",354604,0.68,254.8,21.15,0.248,0.748,99.89324,-0.972,-0.098,88.1,0,109.5,13.64,-0.22,216.8
"2010-11-21 00:32:00",354605,3.202,286.4,5.837,1.115,5.095,99.89127,-0.977,0.115,88.2,0,109.4,13.61,-0.23,248.4
"2010-11-21 00:32:30",354606,3.102,281.3,17.01,0.959,4.495,99.88928,-0.982,0.117,88.1,0,109.5,13.61,-0.23,243.3
"2010-11-21 00:33:00",354607,1.592,250.6,28.4,1.42,2.912,99.89891,-0.957,0.039,87.9,0,109.5,13.61,-0.21,212.6
"2010-11-21 00:33:30",354608,0.081,336.5,18.12,0.097,-0.423,99.89976,-0.955,-0.15,87.6,0,109.5,13.64,-0.21,298.5
"2010-11-21 00:34:00",354609,0.638,338.5,10.83,0.519,-0.043,99.90173,-0.95,-0.022,87.5,0,109.5,13.64,-0.20,300.5
"2010-11-21 00:34:30",354610,2.171,314.2,11.15,1.111,0.94,99.91222,-0.923,-0.036,87.4,0,109.5,13.6,-0.17,276.2
"2010-11-21 00:35:00",354611,2.119,310.6,8.1,1.206,1.686,99.90711,-0.936,0.019,87.3,0,109.5,13.6,-0.19,272.6
"2010-11-21 00:35:30",354612,1.866,310.1,8.27,1.116,2.785,99.90909,-0.931,0.17,87.4,0,109.5,13.6,-0.18,272.1
"2010-11-21 00:36:00",354613,2.42,264.8,49.39,0.445,5.097,99.91135,-0.926,0.2,87.4,0,109.5,13.6,-0.18,226.8
"2010-11-21 00:36:30",354614,1.363,146.5,12.09,1.17,2.128,99.91277,-0.922,0.144,87.3,0,109.5,13.6,-0.17,108.5
"2010-11-21 00:37:00",354615,0.294,126.4,6.493,0.697,-0.383,99.90569,-0.94,-0.096,87.1,0,109.5,13.6,-0.19,88.4
"2010-11-21 00:37:30",354616,-0.005,300.4,80.8,0.191,-1.024,99.89294,-0.972,-0.113,87.1,0,109.5,13.64,-0.22,262.4
"2010-11-21 00:38:00",354617,0.87,321.9,9.1,0.287,-1.065,99.88897,-0.983,-0.108,87.2,0,109.5,13.61,-0.23,283.9
"2010-11-21 00:38:30",354618,2.179,317.8,6.173,1.117,0.913,99.89577,-0.965,0.009,87.4,0,109.5,13.61,-0.22,279.8
"2010-11-21 00:39:00",354619,3.531,322,6.743,1.135,3.828,99.89521,-0.967,0.087,87.5,0,109.5,13.62,-0.22,284.0
"2010-11-21 00:39:30",354620,2.593,271.4,29.07,0.913,4.572,99.89804,-0.96,0.194,87.6,0,109.5,13.62,-0.21,233.4
"2010-11-21 00:40:00",354621,1.094,188.4,21.78,1.29,3.298,99.91871,-0.907,0.09,87.4,0,109.5,13.62,-0.16,150.4
"2010-11-21 00:40:30",354622,0.521,237.7,21.7,0.814,0.617,99.92466,-0.892,0.045,87.2,0,109.5,13.62,-0.14,199.7
"2010-11-21 00:41:00",354623,0.519,267.9,4.689,0.151,-0.042,99.9241,-0.893,-0.073,86.9,0,109.5,13.65,-0.14,229.9
"2010-11-21 00:41:30",354624,0.859,271.8,4.663,0.081,-0.513,99.92466,-0.892,-0.075,86.9,0,109.5,13.65,-0.14,233.8
"2010-11-21 00:42:00",354625,0.831,239.8,13.85,0.97,0.951,99.92437,-0.892,0.041,87,0,109.5,13.62,-0.14,201.8
"2010-11-21 00:42:30",354626,1.863,240.2,5.74,1.298,3.244,99.93315,-0.87,0.06,87.1,0,109.5,13.62,-0.12,202.2
"2010-11-21 00:43:00",354627,2.647,229.3,12.13,1.047,5.228,99.9864,-0.734,0.199,87.1,0,109.5,13.62,0.02,191.3
"2010-11-21 00:43:30",354628,2.283,191,12.75,1.418,4.391,100.0371,-0.605,0.23,86.7,0,109.5,13.62,0.14,153.0
"2010-11-21 00:44:00",354629,1.605,212.6,12.66,1.486,1.967,100.0331,-0.615,0.23,86.1,0,109.5,13.62,0.13,174.6
"2010-11-21 00:44:30",354630,1.034,206.7,3.223,0.782,-0.065,100.0088,-0.677,0.1,85.7,0,109.5,13.62,0.07,168.7
"2010-11-21 00:45:00",354631,0.623,192.9,8.21,0.095,0.105,99.99461,-0.713,0.087,85.7,0,109.5,13.65,0.04,154.9
"2010-11-21 00:45:30",354632,1.51,172.7,16.42,1.215,2.443,99.9728,-0.769,0.158,85.9,0,109.5,13.62,-0.02,134.7
"2010-11-21 00:46:00",354633,1.414,172.8,11.93,1.263,3.119,99.96572,-0.787,0.238,86.1,0,109.5,13.63,-0.04,134.8
"2010-11-21 00:46:30",354634,1.74,197.6,20.05,1.11,4.181,99.95808,-0.806,0.311,86.3,0,109.5,13.63,-0.06,159.6
"2010-11-21 00:47:00",354635,1.193,232.7,10.65,1.302,2.641,99.94164,-0.848,0.233,86.4,0,109.5,13.63,-0.10,194.7
"2010-11-21 00:47:30",354636,0.174,144,26.28,0.772,-0.363,99.9323,-0.872,0.021,86.2,0,109.5,13.63,-0.12,106.0
"2010-11-21 00:48:00",354637,0.825,164.2,26.11,1.173,1.3,99.93201,-0.873,0.163,86.5,0,109.5,13.63,-0.12,126.2
"2010-11-21 00:48:30",354638,0.397,258.2,19.92,0.576,-0.818,99.93201,-0.873,-0.002,86.4,0,109.5,13.63,-0.12,220.2
"2010-11-21 00:49:00",354639,0.935,286.1,8.14,0.126,-0.872,99.93201,-0.873,-0.027,86.5,0,109.5,13.66,-0.12,248.1
"2010-11-21 00:49:30",354640,1.001,305.8,3.68,0.141,-0.6,99.93174,-0.874,-0.008,86.6,0,109.5,13.65,-0.12,267.8
"2010-11-21 00:50:00",354641,1.717,279.1,30.49,1.231,2.625,99.91983,-0.904,0.152,86.8,0,109.5,13.63,-0.16,241.1
"2010-11-21 00:50:30",354642,2.549,209.6,6.561,0.773,5.065,99.91417,-0.918,0.26,86.9,0,109.5,13.63,-0.17,171.6
"2010-11-21 00:51:00",354643,1.4,243.9,12.52,1.126,2.636,99.91332,-0.921,0.145,86.9,0,109.5,13.63,-0.17,205.9
"2010-11-21 00:51:30",354644,2.126,270.8,4.41,1.066,1.814,99.91275,-0.922,-0.002,86.8,0,109.4,13.62,-0.17,232.8
"2010-11-21 00:52:00",354645,2.704,279.9,7.833,1.261,2.112,99.91049,-0.928,0.087,87,0,109.4,13.62,-0.18,241.9
"2010-11-21 00:52:30",354646,1.17,282.1,5.09,0.231,-0.387,99.90284,-0.947,-0.061,86.8,0,109.4,13.65,-0.20,244.1
"2010-11-21 00:53:00",354647,0.322,255.8,31.61,0.201,0.015,99.89803,-0.96,0.036,87,0,109.4,13.65,-0.21,217.8
"2010-11-21 00:53:30",354648,2.538,167.6,11.27,1.088,4.706,99.89803,-0.96,0.229,87.2,0,109.4,13.63,-0.21,129.6
"2010-11-21 00:54:00",354649,2.539,157.8,7.423,1.097,4.162,99.89831,-0.959,0.152,87.2,0,109.4,13.62,-0.21,119.8
"2010-11-21 00:54:30",354650,0.496,134.2,45,1.009,0.735,99.9034,-0.946,-0.095,86.9,0,109.4,13.62,-0.20,96.2
"2010-11-21 00:55:00",354651,0.9,346.5,15.58,1.278,0.791,99.90028,-0.954,-0.095,86.9,0,109.4,13.63,-0.21,308.5
"2010-11-21 00:55:30",354652,0.908,348,13.38,0.97,0.607,99.89803,-0.96,0.086,87.1,0,109.4,13.63,-0.21,310.0
"2010-11-21 00:56:00",354653,1.034,13.47,4.743,1.206,0.437,99.89718,-0.962,-0.086,86.9,0,109.4,13.63,-0.21,335.5
"2010-11-21 00:56:30",354654,0.065,92,42.32,0.121,-0.372,99.87309,-1.023,-0.118,86.9,0,109.4,13.67,-0.27,54.0
"2010-11-21 00:57:00",354655,1.693,162.1,17.86,1.353,2.236,99.86829,-1.035,0.029,87.2,0,109.4,13.64,-0.29,124.1
"2010-11-21 00:57:30",354656,2.777,209.6,14.82,1.137,4.2,99.87593,-1.016,0.142,87.4,0,109.4,13.64,-0.27,171.6
"2010-11-21 00:58:00",354657,3.255,243,6.615,1.006,4.243,99.88358,-0.996,0.122,87.5,0,109.4,13.64,-0.25,205.0
"2010-11-21 00:58:30",354658,2.07,229.3,6.358,1,1.367,99.89491,-0.967,0.087,87.5,0,109.4,13.64,-0.22,191.3
"2010-11-21 00:59:00",354659,2.574,203.9,11.31,1.02,1.265,99.89519,-0.967,-0.093,87.3,0,109.4,13.63,-0.22,165.9
"2010-11-21 00:59:30",354660,2.713,200,6.623,1.24,2.865,99.89519,-0.967,0.008,87.4,0,109.4,13.64,-0.22,162.0
"2010-11-21 01:00:00",354661,1.31,223.6,9.56,0.973,1.021,99.89632,-0.964,-0.122,87.3,0,109.4,13.64,-0.22,185.6
"2010-11-21 01:00:30",354662,1.859,238.2,6.646,1.19,2.882,99.89831,-0.959,0.111,87.6,0,109.4,13.64,-0.21,200.2
"2010-11-21 01:01:00",354663,2.677,246.5,8.81,0.861,4.486,99.89803,-0.96,0.127,87.5,0,109.4,13.64,-0.21,208.5
"2010-11-21 01:01:30",354664,1.915,250.3,7.301,1.209,3.138,99.9442,-0.842,0.039,87.5,0,109.4,13.64,-0.09,212.3
"2010-11-21 01:02:00",354665,0.872,272.8,5.685,0.303,1.694,100.0728,-0.514,0.037,87.4,0,109.4,13.67,0.24,234.8
"2010-11-21 01:02:30",354666,0.825,56.59,43.49,1.155,1.546,100.1218,-0.389,0.305,86.5,0,109.4,13.64,0.36,18.6
"2010-11-21 01:03:00",354667,0.969,140.7,8.76,0.84,0.487,100.0867,-0.479,0.261,85.5,0,109.4,13.64,0.27,102.7
"2010-11-21 01:03:30",354668,2.325,165,7.547,1.231,3.347,100.0499,-0.572,0.424,85.4,0,109.4,13.64,0.18,127.0
"2010-11-21 01:04:00",354669,2.665,170.6,6.775,1.184,4.448,100.0241,-0.638,0.438,85.4,0,109.4,13.64,0.11,132.6
"2010-11-21 01:04:30",354670,2.322,197.5,17.35,1.225,3.526,100.0091,-0.676,0.399,85.4,0,109.4,13.64,0.07,159.5
"2010-11-21 01:05:00",354671,1.737,228.4,14.07,1.208,1.996,100.006,-0.684,0.283,85.4,0,109.4,13.64,0.07,190.4
"2010-11-21 01:05:30",354672,1.16,245.6,4.187,0.586,0.153,99.9949,-0.713,0.163,85.3,0,109.4,13.64,0.04,207.6
"2010-11-21 01:06:00",354673,1.516,249.9,4.536,0.703,0.648,99.98385,-0.741,0.266,85.5,0,109.4,13.64,0.01,211.9
"2010-11-21 01:06:30",354674,3.338,257.8,6.722,1.129,3.02,99.98158,-0.747,0.28,85.6,0,109.4,13.63,0.00,219.8
"2010-11-21 01:07:00",354675,3.656,261.5,7.026,1.165,4.108,99.98073,-0.749,0.391,85.8,0,109.4,13.64,0.00,223.5
"2010-11-21 01:07:30",354676,3.704,246,5.64,1.039,4.544,99.97932,-0.752,0.401,85.9,0,109.4,13.63,-0.00,208.0
"2010-11-21 01:08:00",354677,3.696,231.3,6.165,1.043,4.03,99.97875,-0.754,0.304,85.9,0,109.4,13.63,-0.00,193.3
"2010-11-21 01:08:30",354678,1.728,227.7,6.719,1.24,1.888,99.9711,-0.773,0.187,85.9,0,109.4,13.63,-0.02,189.7
"2010-11-21 01:09:00",354679,0.643,223.6,4.1,0.037,-0.098,99.96033,-0.801,0.074,85.9,0,109.4,13.67,-0.05,185.6
"2010-11-21 01:09:30",354680,0.823,231.1,7.222,0.608,-0.08,99.94646,-0.836,0.072,86,0,109.4,13.63,-0.09,193.1
"2010-11-21 01:10:00",354681,1.542,232.2,5.328,1.137,2.155,99.94617,-0.837,0.254,86.2,0,109.4,13.63,-0.09,194.2
"2010-11-21 01:10:30",354682,1.888,202,14.28,1.215,3.109,99.93314,-0.87,0.234,86.4,0,109.4,13.63,-0.12,164.0
"2010-11-21 01:11:00",354683,2.569,179.7,6.346,1.357,3.644,99.93484,-0.866,0.297,86.6,0,109.4,13.64,-0.12,141.7
"2010-11-21 01:11:30",354684,3.768,189.6,5.164,1.107,4.106,99.95042,-0.826,0.226,86.6,0,109.4,13.64,-0.08,151.6
"2010-11-21 01:12:00",354685,2.29,213.8,15.11,1.008,2.217,99.96996,-0.776,0.168,86.5,0,109.4,13.64,-0.03,175.8
"2010-11-21 01:12:30",354686,1.738,233.7,5.177,0.078,1.49,100.0567,-0.555,0.128,86.5,0,109.4,13.67,0.20,195.7
"2010-11-21 01:13:00",354687,3.115,240.3,6.124,1.21,4.264,100.1419,-0.338,0.403,86.2,0,109.4,13.64,0.41,202.3
"2010-11-21 01:13:30",354688,3.326,235.7,8.12,1.237,4.839,100.1938,-0.205,0.58,85.6,0,109.4,13.64,0.55,197.7
"2010-11-21 01:14:00",354689,2.862,223.6,7.229,1.21,3.827,100.2224,-0.133,0.565,84.9,0,109.4,13.64,0.62,185.6
"2010-11-21 01:14:30",354690,3.351,219.6,6.104,1.153,4.974,100.2309,-0.111,0.732,84.4,0,109.4,13.64,0.64,181.6
"2010-11-21 01:15:00",354691,3.819,213.4,5.601,1.136,4.427,100.2355,-0.099,0.723,83.9,0,109.4,13.64,0.65,175.4
"2010-11-21 01:15:30",354692,2.355,214.2,4.109,0.069,1.277,100.2629,-0.029,0.601,83.5,0,109.4,13.68,0.72,176.2
"2010-11-21 01:16:00",354693,2.382,221.3,3.175,0.659,2.315,100.2757,0.003,0.764,83.3,0,109.4,13.64,0.76,183.3
"2010-11-21 01:16:30",354694,3.953,210.2,7.493,1.16,5.203,100.2975,0.059,0.949,83,0,109.4,13.64,0.81,172.2
"2010-11-21 01:17:00",354695,3.962,204.6,7.064,1.219,4.733,100.2646,-0.025,0.926,82.6,0,109.4,13.64,0.73,166.6
"2010-11-21 01:17:30",354696,3.909,219.7,7.966,1.135,4.789,100.2289,-0.116,0.953,82.4,0,109.4,13.64,0.64,181.7
"2010-11-21 01:18:00",354697,3.435,220.1,8.27,1.222,3.537,100.202,-0.185,0.822,82.5,0,109.4,13.64,0.57,182.1
"2010-11-21 01:18:30",354698,2.141,205.8,3.006,0.08,0.899,100.1782,-0.245,0.614,82.5,0,109.4,13.68,0.51,167.8
"2010-11-21 01:19:00",354699,1.889,201.8,4.879,0.595,1.217,100.1658,-0.277,0.626,82.9,0,109.4,13.64,0.47,163.8
"2010-11-21 01:19:30",354700,2.996,224.2,4.77,1.153,4.694,100.1587,-0.295,0.794,83.3,0,109.4,13.64,0.46,186.2
"2010-11-21 01:20:00",354701,3.657,232.6,5.167,1.133,5.1,100.1623,-0.286,0.798,83.5,0,109.5,13.64,0.47,194.6
"2010-11-21 01:20:30",354702,3.681,235,5.98,1.061,5.311,100.1771,-0.248,0.821,83.6,0,109.4,13.65,0.50,197.0
"2010-11-21 01:21:00",354703,3.846,247.6,9.21,1.157,4.806,100.2179,-0.144,0.799,83.4,0,109.5,13.65,0.61,209.6
"2010-11-21 01:21:30",354704,2.037,232.5,2.955,0.106,1.415,100.2567,-0.045,0.674,82.9,0,109.4,13.68,0.71,194.5
"2010-11-21 01:22:00",354705,2.278,236.6,6.48,0.701,2.084,100.2884,0.036,0.748,82.5,0,109.5,13.64,0.79,198.6
"2010-11-21 01:22:30",354706,3.105,228.3,8.16,1.252,4.472,100.3187,0.113,1.066,82.4,0,109.5,13.64,0.87,190.3
"2010-11-21 01:23:00",354707,3.091,203.2,12.62,1.163,4.389,100.3315,0.146,0.985,82,0,109.4,13.64,0.90,165.2
"2010-11-21 01:23:30",354708,3.528,194.6,5.528,1.114,5.454,100.3032,0.073,1.096,81.8,0,109.5,13.64,0.83,156.6
"2010-11-21 01:24:00",354709,3.073,195.9,6.141,1.211,4.61,100.2811,0.017,1.098,81.8,0,109.5,13.63,0.77,157.9
"2010-11-21 01:24:30",354710,1.778,189.1,4.805,0.751,1.678,100.2678,-0.017,0.859,81.6,0,109.5,13.63,0.74,151.1
"2010-11-21 01:25:00",354711,1.641,183.8,2.966,0.113,0.918,100.259,-0.039,0.794,81.8,0,109.5,13.67,0.71,145.8
"2010-11-21 01:25:30",354712,2.193,178.1,6.108,0.943,1.923,100.2318,-0.109,0.856,81.9,0,109.4,13.63,0.64,140.1
"2010-11-21 01:26:00",354713,3.557,183.8,4.617,1.18,5.43,100.2241,-0.128,0.986,82.2,0,109.5,13.64,0.62,145.8
"2010-11-21 01:26:30",354714,3.86,191.6,4.143,0.657,6.539,100.2051,-0.177,1.003,82.4,0,109.5,13.64,0.57,153.6
"2010-11-21 01:27:00",354715,3.047,196.4,7.366,1.217,4.551,100.1944,-0.204,0.976,82.6,0,109.5,13.64,0.55,158.4
"2010-11-21 01:27:30",354716,2.332,208.6,3.898,1.266,2.325,100.1918,-0.211,0.776,82.6,0,109.5,13.64,0.54,170.6
"2010-11-21 01:28:00",354717,1.508,215.9,1.914,0.068,0.171,100.1663,-0.276,0.67,82.6,0,109.5,13.67,0.48,177.9
"2010-11-21 01:28:30",354718,1.498,220.9,2.338,0.037,0.363,100.1632,-0.283,0.626,82.7,0,109.5,13.68,0.47,182.9
"2010-11-21 01:29:00",354719,2.512,233.2,8.76,1.2,2.615,100.1445,-0.331,0.773,83.1,0,109.5,13.65,0.42,195.2
"2010-11-21 01:29:30",354720,3.919,241.9,6.385,0.997,5.391,100.1431,-0.335,0.877,83.4,0,109.5,13.65,0.42,203.9
"2010-11-21 01:30:00",354721,4.327,234.6,4.937,0.679,6.196,100.1473,-0.324,0.876,83.5,0,109.5,13.65,0.43,196.6
"2010-11-21 01:30:30",354722,4.037,233.1,9,1.094,4.617,100.1638,-0.282,0.781,83.4,0,109.5,13.65,0.47,195.1
"2010-11-21 01:31:00",354723,1.925,229.3,5.229,0.184,1.33,100.1944,-0.204,0.63,83.2,0,109.5,13.68,0.55,191.3
"2010-11-21 01:31:30",354724,1.75,225.5,4.098,0.12,1.139,100.225,-0.126,0.706,83,0,109.5,13.68,0.63,187.5
"2010-11-21 01:32:00",354725,2.691,226.2,8.62,1.334,3.471,100.2326,-0.107,0.731,82.8,0,109.5,13.65,0.65,188.2
"2010-11-21 01:32:30",354726,2.373,214.5,10.1,1.257,4.135,100.2306,-0.112,0.823,82.8,0,109.5,13.65,0.64,176.5
"2010-11-21 01:33:00",354727,2.544,208.6,10.16,1.166,5.146,100.2204,-0.138,0.961,82.9,0,109.5,13.65,0.61,170.6
"2010-11-21 01:33:30",354728,2.468,211.5,11.51,1.232,4.579,100.2119,-0.159,0.949,82.9,0,109.5,13.65,0.59,173.5
"2010-11-21 01:34:00",354729,2.551,212.7,7.931,1.213,3.498,100.2255,-0.125,0.784,82.7,0,109.5,13.65,0.63,174.7
"2010-11-21 01:34:30",354730,1.519,201,2.947,0.047,1.09,100.2468,-0.07,0.71,82.5,0,109.5,13.68,0.68,163.0
"2010-11-21 01:35:00",354731,1.688,204.9,1.846,0.225,1.257,100.2805,0.016,0.745,82.1,0,109.5,13.65,0.77,166.9
"2010-11-21 01:35:30",354732,3.046,217.6,9,1.301,4.12,100.3051,0.078,0.949,81.9,0,109.5,13.65,0.83,179.6
"2010-11-21 01:36:00",354733,3.688,222.1,8.38,1.172,5.324,100.3114,0.094,1.102,81.9,0,109.5,13.65,0.85,184.1
"2010-11-21 01:36:30",354734,3.881,222.1,6.253,1.02,5.496,100.2986,0.062,1.123,81.8,0,109.5,13.65,0.81,184.1
"2010-11-21 01:37:00",354735,4.038,245,7.071,1.046,4.224,100.2587,-0.04,1.083,81.8,0,109.5,13.65,0.71,207.0
"2010-11-21 01:37:30",354736,3.821,254.5,4.466,1.156,2.62,100.1997,-0.19,0.833,81.8,0,109.5,13.65,0.56,216.5
"2010-11-21 01:38:00",354737,2.827,245.7,3.952,0.044,0.967,100.1388,-0.346,0.765,82.2,0,109.5,13.68,0.41,207.7
"2010-11-21 01:38:30",354738,4.133,236.6,10.09,1.171,4.333,100.0972,-0.452,0.76,82.9,0,109.5,13.65,0.30,198.6
"2010-11-21 01:39:00",354739,3.874,218.9,6.998,1.059,5.613,100.1125,-0.413,0.756,83.3,0,109.5,13.65,0.34,180.9
"2010-11-21 01:39:30",354740,3.953,210.3,7.411,0.851,5.914,100.1402,-0.342,0.838,83.6,0,109.5,13.64,0.41,172.3
"2010-11-21 01:40:00",354741,3.58,203.5,9.74,1.137,4.994,100.1672,-0.273,0.832,83.5,0,109.5,13.64,0.48,165.5
"2010-11-21 01:40:30",354742,2.103,192,4.315,0.961,1.81,100.1924,-0.209,0.61,83.1,0,109.5,13.64,0.54,154.0
"2010-11-21 01:41:00",354743,1.597,197,3.302,0.06,0.789,100.1949,-0.203,0.618,82.9,0,109.5,13.67,0.55,159.0
"2010-11-21 01:41:30",354744,1.968,203.9,4.96,1.13,2.062,100.1972,-0.197,0.626,82.9,0,109.5,13.64,0.55,165.9
"2010-11-21 01:42:00",354745,2.791,209.8,9.28,1.144,4.911,100.1929,-0.208,0.838,83,0,109.5,13.64,0.54,171.8
"2010-11-21 01:42:30",354746,3.017,219.3,7.255,1.331,4.185,100.1963,-0.199,0.79,82.9,0,109.5,13.64,0.55,181.3
"2010-11-21 01:43:00",354747,4.19,229.2,5.538,0.759,5.862,100.2077,-0.17,0.947,83.1,0,109.5,13.64,0.58,191.2
"2010-11-21 01:43:30",354748,3.445,232.6,6.189,1.267,3.766,100.2286,-0.117,0.84,82.9,0,109.5,13.64,0.63,194.6
"2010-11-21 01:44:00",354749,2.374,234.5,3.464,0.496,1.95,100.2473,-0.069,0.773,82.8,0,109.5,13.66,0.68,196.5
"2010-11-21 01:44:30",354750,3.354,228.4,10.27,1.164,2.941,100.2678,-0.017,0.759,82.5,0,109.5,13.65,0.74,190.4
"2010-11-21 01:45:00",354751,3.89,228.8,5.78,1.105,4.622,100.2729,-0.004,0.945,82.5,0,109.5,13.65,0.75,190.8
"2010-11-21 01:45:30",354752,4.145,223.4,7.13,1.15,5.438,100.2901,0.04,1.006,82.3,0,109.5,13.65,0.79,185.4
"2010-11-21 01:46:00",354753,4.283,224.2,5.295,0.925,5.698,100.2995,0.064,1.107,82.3,0,109.5,13.65,0.82,186.2
"2010-11-21 01:46:30",354754,3.987,227.7,5.778,1.086,5.018,100.2998,0.065,1.073,82.1,0,109.5,13.65,0.82,189.7
"2010-11-21 01:47:00",354755,2.825,222.6,4.497,0.881,2.185,100.2947,0.052,0.884,81.8,0,109.5,13.65,0.80,184.6
"2010-11-21 01:47:30",354756,3.357,229.4,7.07,1.162,3.323,100.2856,0.029,0.983,81.9,0,109.5,13.65,0.78,191.4
"2010-11-21 01:48:00",354757,3.112,229.6,3.533,0.697,2.18,100.2859,0.029,0.899,81.8,0,109.5,13.65,0.78,191.6